User: anonymous   Login
Location: Artiguedieu
(43.5000°N, 0.5454°E)
Time: 16:58:26
(UTC+00:00)
Language:

Meteor 1-15 - Orbit

View from above orbital plane
View from above orbital plane
View from above satellite
View from above satellite

Ground track
Ground track

The orbit data is extracted from the following two-line orbital elements,

1  6659U 73034A   21337.01344390  .00000216  00000-0  11498-3 0  9998
2  6659  81.1904  69.7222 0028334  51.8303 308.5413 14.09972001494104
Epoch (UTC): 03 December 2021 00:19:21
Eccentricity: 0.0028334
inclination: 81.1904°
perigee height: 839 km
apogee height: 880 km
right ascension of ascending node: 69.7222°
argument of perigee: 51.8303°
revolutions per day: 14.09972001
mean anomaly at epoch: 308.5413°
orbit number at epoch: 49410

The dashed part of the orbit path shows where the satellite is in the earth's shadow,  

DLR